Location: Most
(50.5133°N, 13.6207°E)
Time: 14:25:17
(UTC+02:00)

ISS - Pass Details

Date: 19 September 2017
Orbit: 402 x 407 km, 51.6° (Epoch: 21 September)

Event Time Altitude Azimuth Distance (km) Brightness Sun altitude
Exits shadow 05:05:35 33° 198° (SSW) 701 -3.0 -16.5°
Drops below altitude 10° 05:08:20 10° 144° (SE) 1,464 -0.8 -16.1°
Sets 05:10:30 0° 135° (SE) 2,321 0.3 -15.7°
